User: anonymous   Login
Location: Unspecified
(0.0000°N, 0.0000°E)
Time: 23:44:18
(UTC+00:00)
Language:

SES 6 - Orbit

View from above orbital plane
View from above orbital plane
View from above satellite
View from above satellite

Ground track
Ground track

The orbit data is extracted from the following two-line orbital elements,

1 39172U 13026A   16152.37505926 -.00000269  00000-0  00000+0 0  9993
2 39172   0.0211 347.0026 0001862  95.8544 260.9649  1.00271809 10940
Epoch (UTC): 31 May 2016 09:00:05
Eccentricity: 0.0001862
inclination: 0.0211°
perigee height: 35778 km
apogee height: 35794 km
right ascension of ascending node: 347.0026°
argument of perigee: 95.8544°
revolutions per day: 1.00271809
mean anomaly at epoch: 260.9649°
orbit number at epoch: 1094

The dashed part of the orbit path shows where the satellite is in the earth's shadow,  

DLR